TimeEDT,TemperatureF,Dew PointF,Humidity,Sea Level PressureIn,VisibilityMPH,Wind Direction,Wind SpeedMPH,Gust SpeedMPH,PrecipitationIn,Events,Conditions,WindDirDegrees,DateUTC
12:53 AM,60.1,42.1,51,29.92,10.0,West,12.7,19.6,N/A,,Clear,280,2012-10-22 04:53:00
1:53 AM,59.0,42.1,53,29.92,10.0,West,9.2,17.3,N/A,,Clear,280,2012-10-22 05:53:00
2:53 AM,57.9,43.0,58,29.91,10.0,West,5.8,-,N/A,,Clear,280,2012-10-22 06:53:00
3:53 AM,57.9,44.1,60,29.91,10.0,WNW,10.4,18.4,N/A,,Clear,290,2012-10-22 07:53:00
4:53 AM,59.0,43.0,55,29.92,10.0,WNW,13.8,21.9,N/A,,Clear,290,2012-10-22 08:53:00
5:53 AM,57.9,44.1,60,29.93,10.0,WNW,15.0,23.0,N/A,,Clear,290,2012-10-22 09:53:00
6:53 AM,57.9,44.1,60,29.94,10.0,WNW,12.7,23.0,N/A,,Clear,290,2012-10-22 10:53:00
7:53 AM,59.0,45.0,60,29.95,10.0,WNW,13.8,25.3,N/A,,Clear,290,2012-10-22 11:53:00
8:53 AM,61.0,45.0,56,29.96,10.0,WNW,13.8,23.0,N/A,,Clear,290,2012-10-22 12:53:00
9:53 AM,63.0,45.0,52,29.95,10.0,WNW,16.1,26.5,N/A,,Clear,290,2012-10-22 13:53:00
10:53 AM,64.0,45.0,50,29.95,10.0,WNW,18.4,28.8,N/A,,Clear,300,2012-10-22 14:53:00
11:53 AM,66.0,42.1,42,29.95,10.0,NW,18.4,29.9,N/A,,Clear,310,2012-10-22 15:53:00
12:53 PM,66.9,43.0,42,29.93,10.0,NW,16.1,24.2,N/A,,Clear,310,2012-10-22 16:53:00
1:53 PM,68.0,44.1,42,29.91,10.0,West,15.0,23.0,N/A,,Clear,280,2012-10-22 17:53:00
2:53 PM,68.0,44.1,42,29.91,10.0,West,17.3,24.2,N/A,,Clear,280,2012-10-22 18:53:00
3:53 PM,68.0,43.0,40,29.91,10.0,WNW,12.7,-,N/A,,Clear,290,2012-10-22 19:53:00
4:53 PM,66.9,43.0,42,29.91,10.0,WNW,10.4,-,N/A,,Clear,300,2012-10-22 20:53:00
5:53 PM,62.1,45.0,53,29.93,10.0,WNW,6.9,-,N/A,,Clear,300,2012-10-22 21:53:00
6:53 PM,60.1,45.0,57,29.95,10.0,Variable,3.5,-,N/A,,Clear,0,2012-10-22 22:53:00
7:53 PM,60.1,46.0,60,29.96,10.0,West,4.6,-,N/A,,Clear,280,2012-10-22 23:53:00
8:53 PM,60.1,46.9,62,29.98,10.0,WNW,5.8,-,N/A,,Clear,290,2012-10-23 00:53:00
9:53 PM,59.0,46.0,62,29.98,10.0,WNW,5.8,-,N/A,,Clear,290,2012-10-23 01:53:00
10:53 PM,59.0,46.9,64,29.99,10.0,WNW,5.8,-,N/A,,Clear,300,2012-10-23 02:53:00
11:53 PM,59.0,46.0,62,30.00,10.0,NW,6.9,-,N/A,,Clear,310,2012-10-23 03:53:00